ATLAS 5 CENTAUR DEB, 43982

Orbit data source: Space-Track

ATLAS 5 CENTAUR DEB, 43982 is space debris in HEO originally from a launch on Wed, 17 Sep 2014 UTC launched from the Air Force Eastern Test Range (AFETR). Debris objects in space refer to the collection of defunct objects orbiting the Earth. Examples of debris include non-operational satellites, rocket bodies, and fragments generated from explosions, collisions, or faulty payload assembly.

Loading next visibility...
Identifier
43982, 2014-055AM
Orbit
HEO
Last TLE update
5 days ago
Origin
Manufacturer
Unknown
Mission
Spacecraft
Bus & Motor
Unknown
Mass
Unknown
Launch date (UTC)
2014-09-17 (11 years ago)
Launch vehicle
Unknown
Launch site
Air Force Eastern Test Range (AFETR)
Object type
Payload
Rocket body
Debris
Shape & HBR
Unknown
Radar Cross Section
RCS unknown

Expand to show TLE details & history

TLE from 5 days ago
0 ATLAS 5 CENTAUR DEB
1 43982U 14055AM  25124.58492763 -.00000104  00000-0  00000-0 0  9995
2 43982  19.7762 227.4505 4639770  20.9800 353.0327  1.75469145 42641
Epoch: 2025-05-04T14:02Z
Definitive object data (Epoch: 2025-05-04T14:02:17.747Z)
Latitude
-0.00004°
Longitude
154.18844°
Altitude
9,502.869 km
Speed
6.039 km/s
True Right ascension
15h 09m 53s
True Declination
0° 00' 00"
Sunlit
Object was in full shadow at TLE epoch
Visualization TLE readout
Latitude
8.03271°
Longitude
-49.22781°
Altitude
27,277.001 km
Speed
3.156 km/s
Apparent Right ascension
01h 47m 31s
Apparent Declination
0° 56' 47"
Sunlit
Object is in daylight
Visualization observer readout
Local Sidereal Time
15:05:53
Azimuth
28.514° NE
Elevation
-45.389°
Doppler factor
1
Orbital elements
Apogee altitude
36,132.364 km
Perigee altitude
9,186.729 km
Semi-major axis
29,037.683 km
Eccentricity
0.463977
Inclination
19.7762°
RAAN
227.4505°
Arg. of periapsis
20.98°
True anomaly
338.8282°
Mean anomaly
353.0327°
Eccentric anomaly
347.09605°
Mean motion
0.43863 °/min
BSTAR
Unknown
Orbital period
820.73 mins
Loading maneuver chart data...
Loading SW <> Apogee altitude chart data...
Loading historical data...
Loading historical data...
Loading historical data...
Loading historical data...
Loading historical data...
Loading historical data...
Loading historical data...

ATLAS 5 CENTAUR DEB Visibility forecast

Observer location: undefined°, undefined°

Span
Click to sort rows by Start time (UTC) header in descending order
Start Az.
Max El. time (UTC)
Max El. Az.
Max El.
End time (UTC)
End Az.
326 mins2025-05-09 18:42:58.380Z272.76° WNW2025-05-09 20:22:58.380Z248.41° W24.466°2025-05-10 00:08:58.380Z243.419° WSW
47 mins2025-05-10 06:09:58.380Z213.744° SW2025-05-10 06:56:58.380Z162.712° S28.366°2025-05-10 06:56:58.380Z162.712° S
|